{"data":{"norad_id":58177,"epoch":"2026-05-25T03:56:36.569760Z","epoch_age_seconds":54126,"freshness":"FRESH","line1":"1 58177U 23167C   26145.16431215  .00001086  00000+0  48968-4 0  9991","line2":"2 58177  43.0031  71.2706 0001153 280.6350  79.4372 15.27582749142681","mean_motion":15.27582749,"eccentricity":0.0001153,"inclination_deg":43.0031,"raan_deg":71.2706,"arg_perigee_deg":280.635,"mean_anomaly_deg":79.4372,"bstar":4.8968e-5,"rev_number":14268,"period_min":94.26657907355,"perigee_km":482.24977074927,"apogee_km":483.83195836483,"semimajor_km":6861.1778645571,"source":"CELESTRAK","updated_at":"2026-05-25T13:38:18.567713Z"}}